Location: Tafessasset
(32.5899°N, 5.4824°W)
Time: 09:26:12
(UTC+00:00)

Cosmos 1869 - Pass Details

Date: 18 February 2020
Orbit: 524 x 559 km, 82.5° (Epoch: 28 March)

Event Time Altitude Azimuth Distance (km) Brightness Sun altitude
Rises 05:44:56 0° 194° (SSW) 2,716 6.8 -17.0°
Reaches altitude 10° 05:47:07 10° 198° (SSW) 1,821 5.8 -16.5°
Maximum altitude 05:51:04 57° 278° (W) 648 3.3 -15.7°
Drops below altitude 10° 05:55:00 10° 357° (N) 1,815 5.9 -14.9°
Sets 05:57:11 0° 2° (N) 2,705 6.8 -14.4°
